FENGYUN 1C DEB

Satellite information

Favourite Embed

Satellite Type and Status

DEBRISIN ORBIT

Key statistics

Satellite FENGYUN 1C DEB at a glance.

Uptime

9555

Days in orbit

Revolutions

≈ 14.2

Per day

Orbit

SSO

Sun Synchronous Orbit

Inclination

98.5

Latest

Satellite identification and parameters

Extended collection of information and parameters for FENGYUN 1C DEB.

Object identification

Identified? True

Debris? True

Object name: FENGYUN 1C DEB

International designator: 1999-025DPC

Object number (NORAD): 35196

Object ID (CCSDS): 35196

Country: PEOPLES REPUBLIC OF CHINA (PRC)

Current information (Y/N): Y

RCS size: SMALL

Orbital parameters

Period: 101.476 minutes

Inclination: 98.5442 deg

SMA: 7206.682 km

Apoapsis: 986.012 km

Periapsis: 671.083 km

RAAN: 206.5484 deg

Eccentricy: 0.0218498

Argument of periapsis: 84.0967 deg

Mean anomaly: 90.9455 deg

Mean motion: 14.19056525 rev/day

Mean motion (dot): 0.00001688 rev/day2

B* drag term: 0.00065323 1/REarth

Two-line elements (TLE)

Creation date: July 4, 2025, 10:36 p.m.

Reference frame: TEME

Reference center: EARTH

Epoch: July 4, 2025, 7:18 p.m. UTC

TLE line 0: 0 FENGYUN 1C DEB

TLE line 1: 1 35196U 99025DPC 25185.80454544 .00001688 00000-0 65323-3 0 9999

TLE line 2: 2 35196 98.5442 206.5484 0218498 84.0967 90.9455 14.19056525869444

Live tracking on map

Real-time ground track for satellite FENGYUN 1C DEB.

In-orbit conjunctions

A list of the most updated potential collisions computed for object FENGYUN 1C DEB.

Target Orbit TCA Probability of collision Miss distance Type
FENGYUN 1C DEB SSO 2025-07-09 14:03:20 0.000211176 21.0 (m) DEBRIS
COSMOS 1736 LEO 2025-02-04 02:39:54 0.0001038423 803.0 (m) PAYLOAD
COSMOS 2251 DEB LEO 2024-11-12 08:12:15 0.0002371262 902.0 (m) DEBRIS

Associated space launch

Chinese polar orbiting meteorological satellite

FENGYUN 1C DEB was lifted into orbit during the mission ‘Long March 4B | Feng Yun 1C’, on board a Long March 4B space rocket.

The launch took place on May 10, 1999, 1:33 a.m. from Launch Complex 7.

For more information about the launch, click the button.

Launch to space Long March 4B | Feng Yun 1C
Long March 4B | Feng Yun 1C

Agency: N/A

Status: Launch Successful

Launch date: May 10, 1999, 1:33 a.m. UTC

Rocket: Long March 4B

Launch pad: Launch Complex 7

Location: Taiyuan Satellite Launch Center, People's Republic of China

...

Latest news about this satellite

There are no fresh news available about this satellite. Check back as we update our databases every day.


Newsletter sign-up

Weekly statistics, charts and insights to help you stay on top of the space industry.